EAL1953 KELP-KCLT

Flight info

Callsign EAL1953
Flight time N/A
Altitude 37000
Route TDOWN3 SFL INK J50 ABI FUZ IZAAC Q30 VLKNN BESTT JONZE5
Aircraft B752/M-L/3033

Departure

Time 2026-05-08 06:49
Airport El Paso International Airport (KELP)

Arrival

Time N/A
Airport Charlotte Douglas International Airport (KCLT)
Time Latitude Longitude Altitude Speed Heading
2026-05-08 06:48 31.80192 -106.39933 3968 ft 0 kts 50°
2026-05-08 06:49 31.80278 -106.39813 3968 ft 58 kts 50°
2026-05-08 06:49 31.80747 -106.39159 3968 ft 148 kts 50°
2026-05-08 06:49 31.81540 -106.38053 4371 ft 192 kts 50°
2026-05-08 06:49 31.82391 -106.36819 5691 ft 196 kts 57°
2026-05-08 06:50 31.82990 -106.35434 6798 ft 188 kts 69°
2026-05-08 06:50 31.83457 -106.34002 7522 ft 190 kts 72°
2026-05-08 06:50 31.83932 -106.32488 7974 ft 205 kts 72°
2026-05-08 06:50 31.84459 -106.30855 8408 ft 221 kts 70°
2026-05-08 06:51 31.84987 -106.29093 8818 ft 237 kts 79°
2026-05-08 06:51 31.84943 -106.27117 9242 ft 249 kts 102°
2026-05-08 06:51 31.84395 -106.25115 9652 ft 265 kts 114°
2026-05-08 06:51 31.83574 -106.23136 10047 ft 281 kts 120°
2026-05-08 06:52 31.82547 -106.21066 10437 ft 298 kts 122°
2026-05-08 06:52 31.81417 -106.18985 10802 ft 314 kts 123°
2026-05-08 06:52 31.80281 -106.16720 11173 ft 329 kts 117°
2026-05-08 06:52 31.79429 -106.14155 11508 ft 345 kts 107°
2026-05-08 06:53 31.78916 -106.11341 11837 ft 359 kts 98°
2026-05-08 06:53 31.78695 -106.08387 12421 ft 364 kts 93°
2026-05-08 06:53 31.78658 -106.05398 13060 ft 367 kts 90°
2026-05-08 06:53 31.78701 -106.02394 13771 ft 369 kts 90°
2026-05-08 06:54 31.78755 -105.99366 14502 ft 371 kts 90°
2026-05-08 06:54 31.78788 -105.96313 15208 ft 374 kts 91°
2026-05-08 06:54 31.78790 -105.93282 15834 ft 378 kts 92°
2026-05-08 06:54 31.78764 -105.90172 16438 ft 381 kts 92°
2026-05-08 06:55 31.78725 -105.87040 17017 ft 385 kts 92°
2026-05-08 06:55 31.78682 -105.83879 17578 ft 388 kts 92°
2026-05-08 06:55 31.78638 -105.80693 18138 ft 391 kts 92°
2026-05-08 06:55 31.78595 -105.77475 18711 ft 395 kts 92°
2026-05-08 06:56 31.78551 -105.74237 19272 ft 397 kts 93°
2026-05-08 06:56 31.78477 -105.70970 19779 ft 401 kts 94°
2026-05-08 06:56 31.78356 -105.67709 20245 ft 406 kts 95°
2026-05-08 06:56 31.78196 -105.64379 20687 ft 410 kts 95°
2026-05-08 06:57 31.78008 -105.61017 21135 ft 414 kts 95°
2026-05-08 06:57 31.77806 -105.57628 21613 ft 416 kts 95°
2026-05-08 06:57 31.77591 -105.54225 22090 ft 418 kts 95°
2026-05-08 06:57 31.77377 -105.50808 22548 ft 421 kts 95°
2026-05-08 06:58 31.77172 -105.47365 22986 ft 424 kts 94°
2026-05-08 06:58 31.76967 -105.43890 23442 ft 427 kts 94°
2026-05-08 06:58 31.76757 -105.40391 23932 ft 430 kts 94°
2026-05-08 06:58 31.76542 -105.36887 24471 ft 430 kts 94°
2026-05-08 06:59 31.76323 -105.33370 24964 ft 432 kts 94°
2026-05-08 06:59 31.76104 -105.29832 25336 ft 437 kts 95°
2026-05-08 06:59 31.75891 -105.26288 25622 ft 443 kts 94°
2026-05-08 06:59 31.75666 -105.22630 25805 ft 453 kts 101°
2026-05-08 07:00 31.75412 -105.18895 25913 ft 464 kts 100°
2026-05-08 07:00 31.75166 -105.15070 26084 ft 472 kts 96°
2026-05-08 07:00 31.74945 -105.11194 26355 ft 478 kts 96°
2026-05-08 07:00 31.74857 -105.07264 26733 ft 482 kts 94°
2026-05-08 07:01 31.74959 -105.03317 27219 ft 484 kts 91°
2026-05-08 07:01 31.75119 -105.00700 27539 ft 484 kts 89°
2026-05-08 07:01 31.75455 -104.96763 27974 ft 486 kts 86°
2026-05-08 07:01 31.75852 -104.92796 28306 ft 491 kts 86°
2026-05-08 07:02 31.76381 -104.87477 28672 ft 497 kts 87°
2026-05-08 07:02 31.76629 -104.84737 28887 ft 499 kts 88°
2026-05-08 07:02 31.76960 -104.80709 29209 ft 502 kts 89°
2026-05-08 07:02 31.77256 -104.76609 29535 ft 505 kts 90°
2026-05-08 07:03 31.77539 -104.72466 29801 ft 510 kts 90°
2026-05-08 07:03 31.77818 -104.68291 29957 ft 517 kts 90°
2026-05-08 07:03 31.78113 -104.64045 30081 ft 524 kts 89°
2026-05-08 07:03 31.78420 -104.59757 30314 ft 528 kts 89°
2026-05-08 07:04 31.78736 -104.55450 30667 ft 529 kts 89°
2026-05-08 07:04 31.79044 -104.51145 31067 ft 528 kts 90°
2026-05-08 07:04 31.79342 -104.46849 31440 ft 528 kts 90°
2026-05-08 07:04 31.79637 -104.42541 31783 ft 528 kts 90°
2026-05-08 07:05 31.79931 -104.38237 32103 ft 529 kts 89°
2026-05-08 07:05 31.80241 -104.33921 32415 ft 530 kts 89°
2026-05-08 07:05 31.80557 -104.29656 32743 ft 530 kts 89°
2026-05-08 07:05 31.80862 -104.25344 33098 ft 529 kts 89°
2026-05-08 07:06 31.81156 -104.21030 33454 ft 528 kts 90°
2026-05-08 07:06 31.81447 -104.16728 33753 ft 528 kts 90°
2026-05-08 07:06 31.81738 -104.12418 34034 ft 529 kts 90°
2026-05-08 07:06 31.82028 -104.08104 34331 ft 529 kts 90°
2026-05-08 07:07 31.82318 -104.03796 34638 ft 528 kts 90°
2026-05-08 07:07 31.82607 -103.99499 34961 ft 527 kts 90°
2026-05-08 07:07 31.82898 -103.95208 35298 ft 526 kts 90°
2026-05-08 07:07 31.83187 -103.90974 35642 ft 524 kts 90°
2026-05-08 07:08 31.83478 -103.86703 35979 ft 522 kts 90°
2026-05-08 07:08 31.83769 -103.82452 36276 ft 521 kts 90°
2026-05-08 07:08 31.84060 -103.78197 36509 ft 522 kts 90°
2026-05-08 07:08 31.84339 -103.73937 36720 ft 522 kts 90°
2026-05-08 07:09 31.84603 -103.69670 36871 ft 523 kts 90°
2026-05-08 07:09 31.84864 -103.65405 36965 ft 523 kts 91°
2026-05-08 07:09 31.85390 -103.56887 37002 ft 527 kts 91°
2026-05-08 07:10 31.85927 -103.48285 37000 ft 527 kts 90°
2026-05-08 07:10 31.86473 -103.39672 37001 ft 528 kts 90°
2026-05-08 07:11 31.87017 -103.31054 37001 ft 527 kts 91°
2026-05-08 07:11 31.87673 -103.22489 37001 ft 530 kts 86°
2026-05-08 07:12 31.89086 -103.13922 37006 ft 537 kts 80°
2026-05-08 07:12 31.90997 -103.05372 37008 ft 540 kts 78°
2026-05-08 07:13 31.92860 -102.96781 37010 ft 541 kts 80°
2026-05-08 07:13 31.94498 -102.88187 37014 ft 541 kts 82°
2026-05-08 07:14 31.96066 -102.79505 37021 ft 541 kts 82°
2026-05-08 07:14 31.97672 -102.70842 37025 ft 541 kts 78°
2026-05-08 07:15 31.99329 -102.62249 37023 ft 541 kts 81°
2026-05-08 07:15 32.00977 -102.53570 37025 ft 543 kts 82°
2026-05-08 07:16 32.02576 -102.44859 37024 ft 545 kts 82°
2026-05-08 07:16 32.04226 -102.36125 37022 ft 545 kts 81°
2026-05-08 07:17 32.05840 -102.27429 37020 ft 545 kts 82°
2026-05-08 07:17 32.07439 -102.18668 37019 ft 546 kts 82°
2026-05-08 07:18 32.09041 -102.09899 37024 ft 547 kts 82°
2026-05-08 07:18 32.10650 -102.01112 37025 ft 548 kts 82°
2026-05-08 07:19 32.12265 -101.92316 37023 ft 548 kts 82°
2026-05-08 07:19 32.13888 -101.83526 37021 ft 548 kts 82°
2026-05-08 07:20 32.15502 -101.74784 37021 ft 549 kts 82°
2026-05-08 07:20 32.17089 -101.65979 37020 ft 549 kts 82°
2026-05-08 07:21 32.18642 -101.57149 37021 ft 549 kts 82°
2026-05-08 07:21 32.20247 -101.48314 37021 ft 550 kts 82°
2026-05-08 07:22 32.21824 -101.39487 37022 ft 549 kts 82°
2026-05-08 07:22 32.23382 -101.30647 37023 ft 549 kts 82°
2026-05-08 07:23 32.24937 -101.21815 37025 ft 549 kts 82°
2026-05-08 07:23 32.26497 -101.13040 37029 ft 549 kts 82°
2026-05-08 07:24 32.28061 -101.04213 37028 ft 549 kts 82°
2026-05-08 07:24 32.29597 -100.95366 37024 ft 549 kts 82°
2026-05-08 07:25 32.31127 -100.86517 37024 ft 548 kts 82°
2026-05-08 07:26 32.33417 -100.73313 37024 ft 549 kts 82°
2026-05-08 07:26 32.34954 -100.64460 37025 ft 549 kts 83°
2026-05-08 07:27 32.36446 -100.55579 37027 ft 550 kts 83°
2026-05-08 07:27 32.37976 -100.46686 37026 ft 551 kts 82°
2026-05-08 07:28 32.39487 -100.37801 37028 ft 551 kts 83°
2026-05-08 07:28 32.40965 -100.28965 37025 ft 551 kts 83°
2026-05-08 07:29 32.42452 -100.20046 37010 ft 551 kts 83°
2026-05-08 07:29 32.43939 -100.11140 37002 ft 551 kts 83°
2026-05-08 07:30 32.45436 -100.02227 36987 ft 552 kts 83°
2026-05-08 07:30 32.46932 -99.93384 36980 ft 551 kts 83°
2026-05-08 07:31 32.48414 -99.84482 36984 ft 551 kts 83°
2026-05-08 07:31 32.49842 -99.75551 36994 ft 551 kts 83°
2026-05-08 07:32 32.51262 -99.66611 36993 ft 552 kts 83°
2026-05-08 07:32 32.52719 -99.57663 36992 ft 553 kts 82°
2026-05-08 07:33 32.54192 -99.48704 36992 ft 554 kts 83°
2026-05-08 07:33 32.55634 -99.39731 36992 ft 554 kts 83°
2026-05-08 07:34 32.57036 -99.30729 36991 ft 554 kts 83°
2026-05-08 07:34 32.58437 -99.21773 36991 ft 555 kts 83°
2026-05-08 07:35 32.59896 -99.12777 36990 ft 556 kts 83°
2026-05-08 07:35 32.61317 -99.03788 36993 ft 557 kts 83°
2026-05-08 07:36 32.62719 -98.94732 36997 ft 558 kts 83°
2026-05-08 07:36 32.64118 -98.85665 37013 ft 558 kts 83°
2026-05-08 07:37 32.65519 -98.76601 37021 ft 559 kts 83°
2026-05-08 07:37 32.66916 -98.67514 37021 ft 559 kts 84°
2026-05-08 07:38 32.68277 -98.58493 37024 ft 558 kts 84°
2026-05-08 07:38 32.69644 -98.49408 37021 ft 558 kts 84°
2026-05-08 07:39 32.71011 -98.40336 37017 ft 558 kts 84°
2026-05-08 07:39 32.72384 -98.31257 37014 ft 558 kts 84°
2026-05-08 07:40 32.73762 -98.22180 37011 ft 557 kts 84°
2026-05-08 07:40 32.75142 -98.13113 37009 ft 557 kts 84°
2026-05-08 07:41 32.76489 -98.04112 37002 ft 558 kts 83°
2026-05-08 07:41 32.77814 -97.95005 37003 ft 560 kts 83°
2026-05-08 07:42 32.79137 -97.85866 37007 ft 561 kts 83°
2026-05-08 07:42 32.80462 -97.76717 37008 ft 562 kts 83°
2026-05-08 07:43 32.81796 -97.67564 37015 ft 562 kts 83°
2026-05-08 07:43 32.83147 -97.58388 37017 ft 562 kts 83°
2026-05-08 07:44 32.84475 -97.49266 37016 ft 562 kts 84°
2026-05-08 07:44 32.85755 -97.40099 37013 ft 562 kts 84°
2026-05-08 07:45 32.87073 -97.30960 37019 ft 557 kts 81°
2026-05-08 07:45 32.88396 -97.21923 37010 ft 552 kts 84°
2026-05-08 07:46 32.89569 -97.12859 37011 ft 556 kts 86°
2026-05-08 07:46 32.90537 -97.03702 37010 ft 558 kts 88°
2026-05-08 07:47 32.91461 -96.94505 37007 ft 561 kts 87°
2026-05-08 07:47 32.92460 -96.85341 37002 ft 562 kts 86°
2026-05-08 07:48 32.93492 -96.76115 37003 ft 563 kts 86°
2026-05-08 07:48 32.94330 -96.68364 37005 ft 563 kts 86°
2026-05-08 07:49 32.95481 -96.57588 37008 ft 565 kts 87°
2026-05-08 07:49 32.96307 -96.49863 37018 ft 566 kts 86°
2026-05-08 07:50 32.97289 -96.40550 37020 ft 566 kts 87°
2026-05-08 07:50 32.98247 -96.31235 37008 ft 567 kts 87°
2026-05-08 07:51 32.99231 -96.21904 36984 ft 566 kts 87°
2026-05-08 07:51 33.00178 -96.12591 36970 ft 565 kts 87°
2026-05-08 07:52 33.01101 -96.03359 36970 ft 564 kts 87°
2026-05-08 07:52 33.02027 -95.94060 36969 ft 566 kts 87°
2026-05-08 07:53 33.03000 -95.84744 36973 ft 566 kts 87°
2026-05-08 07:53 33.03950 -95.75435 36999 ft 566 kts 87°
2026-05-08 07:54 33.04894 -95.66103 37008 ft 567 kts 87°
2026-05-08 07:54 33.05784 -95.56767 37016 ft 566 kts 88°
2026-05-08 07:55 33.06690 -95.47441 37022 ft 567 kts 87°
2026-05-08 07:55 33.07618 -95.38110 37024 ft 567 kts 88°
2026-05-08 07:56 33.08498 -95.28777 37019 ft 566 kts 88°
2026-05-08 07:56 33.09362 -95.19497 37020 ft 566 kts 87°
2026-05-08 07:57 33.10247 -95.10159 37021 ft 566 kts 88°
2026-05-08 07:57 33.11127 -95.00817 37023 ft 566 kts 88°
2026-05-08 07:58 33.12011 -94.91483 37024 ft 566 kts 88°
2026-05-08 07:58 33.12902 -94.82133 37026 ft 566 kts 88°
2026-05-08 07:59 33.13750 -94.72846 37028 ft 566 kts 88°
2026-05-08 07:59 33.14566 -94.63498 37022 ft 566 kts 88°
2026-05-08 08:00 33.15442 -94.54175 37025 ft 562 kts 84°
2026-05-08 08:00 33.16317 -94.44958 37014 ft 554 kts 88°
2026-05-08 08:01 33.17075 -94.35815 37024 ft 559 kts 89°
2026-05-08 08:01 33.17852 -94.26539 37025 ft 562 kts 88°
2026-05-08 08:02 33.18667 -94.17239 37025 ft 564 kts 88°
2026-05-08 08:02 33.19497 -94.07910 37025 ft 565 kts 88°
2026-05-08 08:03 33.20311 -93.98631 37026 ft 565 kts 89°
2026-05-08 08:03 33.21075 -93.89284 37024 ft 565 kts 89°
2026-05-08 08:04 33.21840 -93.79936 37025 ft 565 kts 88°
2026-05-08 08:04 33.22652 -93.70590 37027 ft 566 kts 87°
2026-05-08 08:05 33.23456 -93.61240 37027 ft 565 kts 88°
2026-05-08 08:05 33.24216 -93.51973 37029 ft 564 kts 88°
2026-05-08 08:06 33.24973 -93.42627 37030 ft 564 kts 88°
2026-05-08 08:06 33.25732 -93.33303 37030 ft 564 kts 88°
2026-05-08 08:07 33.26475 -93.23975 37029 ft 563 kts 88°
2026-05-08 08:07 33.27182 -93.14665 37026 ft 563 kts 86°
2026-05-08 08:08 33.27920 -93.05296 37030 ft 568 kts 86°
2026-05-08 08:08 33.28671 -92.95873 37030 ft 570 kts 86°
2026-05-08 08:09 33.29418 -92.86473 37030 ft 572 kts 86°
2026-05-08 08:09 33.30114 -92.76984 37030 ft 572 kts 87°
2026-05-08 08:10 33.30796 -92.67489 37029 ft 573 kts 86°
2026-05-08 08:10 33.31513 -92.57980 37030 ft 574 kts 86°
2026-05-08 08:11 33.32246 -92.48528 37030 ft 575 kts 86°
2026-05-08 08:11 33.32951 -92.38989 37030 ft 575 kts 86°
2026-05-08 08:12 33.33614 -92.29460 37030 ft 575 kts 87°
2026-05-08 08:12 33.34274 -92.19908 37029 ft 575 kts 86°
2026-05-08 08:13 33.34932 -92.10369 37029 ft 575 kts 87°
2026-05-08 08:13 33.35589 -92.00887 37030 ft 576 kts 86°
2026-05-08 08:14 33.36262 -91.91273 37030 ft 576 kts 86°
2026-05-08 08:14 33.36937 -91.81725 37030 ft 576 kts 86°
2026-05-08 08:15 33.37608 -91.72242 37025 ft 574 kts 86°
2026-05-08 08:15 33.38238 -91.62732 37028 ft 573 kts 87°
2026-05-08 08:16 33.38821 -91.53207 37030 ft 575 kts 87°
2026-05-08 08:16 33.39459 -91.43647 37030 ft 576 kts 86°
2026-05-08 08:17 33.40085 -91.34124 37030 ft 576 kts 87°
2026-05-08 08:17 33.40676 -91.24561 37030 ft 576 kts 87°
2026-05-08 08:18 33.41261 -91.14993 37028 ft 575 kts 87°
2026-05-08 08:18 33.41844 -91.05433 37030 ft 576 kts 87°
2026-05-08 08:19 33.42429 -90.95921 37030 ft 576 kts 87°
2026-05-08 08:19 33.43024 -90.86335 37030 ft 577 kts 87°
2026-05-08 08:20 33.43617 -90.76761 37030 ft 577 kts 87°
2026-05-08 08:20 33.44166 -90.67176 37029 ft 577 kts 87°
2026-05-08 08:21 33.44738 -90.57581 37029 ft 577 kts 86°
2026-05-08 08:21 33.45282 -90.48006 37029 ft 576 kts 87°
2026-05-08 08:22 33.45786 -90.38406 37029 ft 577 kts 87°
2026-05-08 08:22 33.46332 -90.28876 37029 ft 577 kts 87°
2026-05-08 08:23 33.46700 -90.19281 37030 ft 576 kts 90°
2026-05-08 08:23 33.46803 -90.09692 37030 ft 575 kts 92°
2026-05-08 08:24 33.46859 -90.00106 37029 ft 575 kts 91°
2026-05-08 08:24 33.47001 -89.90588 37027 ft 575 kts 90°
2026-05-08 08:25 33.47188 -89.81004 37026 ft 575 kts 90°
2026-05-08 08:25 33.47370 -89.71401 37021 ft 575 kts 90°
2026-05-08 08:26 33.47511 -89.61822 37015 ft 575 kts 90°
2026-05-08 08:26 33.47604 -89.52233 37014 ft 575 kts 91°
2026-05-08 08:27 33.47745 -89.42712 37013 ft 575 kts 90°
2026-05-08 08:27 33.47871 -89.33117 37012 ft 575 kts 90°
2026-05-08 08:28 33.47974 -89.23533 37012 ft 575 kts 91°
2026-05-08 08:28 33.48087 -89.13944 37011 ft 575 kts 90°
2026-05-08 08:29 33.48168 -89.04351 37012 ft 577 kts 90°
2026-05-08 08:29 33.48237 -88.94791 37014 ft 578 kts 90°
2026-05-08 08:30 33.48322 -88.85164 37046 ft 574 kts 89°
2026-05-08 08:30 33.48470 -88.70879 37070 ft 573 kts 90°
2026-05-08 08:31 33.48550 -88.61297 37069 ft 576 kts 90°
2026-05-08 08:31 33.48571 -88.51752 37069 ft 577 kts 89°
2026-05-08 08:32 33.49255 -88.42159 37063 ft 578 kts 81°
2026-05-08 08:32 33.50660 -88.32675 37054 ft 577 kts 77°
2026-05-08 08:33 33.51883 -88.24819 37048 ft 578 kts 78°
2026-05-08 08:33 33.53102 -88.15288 37047 ft 578 kts 81°
2026-05-08 08:34 33.54276 -88.04160 37048 ft 579 kts 82°
2026-05-08 08:34 33.55147 -87.96137 37048 ft 579 kts 81°
2026-05-08 08:35 33.56245 -87.86625 37049 ft 579 kts 81°
2026-05-08 08:35 33.57387 -87.77053 37051 ft 579 kts 81°
2026-05-08 08:36 33.58525 -87.67470 37053 ft 579 kts 81°
2026-05-08 08:36 33.59603 -87.57894 37053 ft 579 kts 81°
2026-05-08 08:37 33.60643 -87.48368 37056 ft 579 kts 81°
2026-05-08 08:37 33.61743 -87.38796 37059 ft 579 kts 81°
2026-05-08 08:38 33.62817 -87.29205 37062 ft 579 kts 81°
2026-05-08 08:38 33.63871 -87.19619 37065 ft 579 kts 81°
2026-05-08 08:39 33.64928 -87.10042 37068 ft 579 kts 81°
2026-05-08 08:39 33.65982 -87.00465 37070 ft 579 kts 82°
2026-05-08 08:40 33.67019 -86.90868 37077 ft 579 kts 83°
2026-05-08 08:40 33.67399 -86.81211 37082 ft 580 kts 91°
2026-05-08 08:41 33.67001 -86.71614 37080 ft 579 kts 96°
2026-05-08 08:41 33.66508 -86.61953 37076 ft 579 kts 94°
2026-05-08 08:42 33.66292 -86.52302 37074 ft 579 kts 91°
2026-05-08 08:42 33.66232 -86.42626 37066 ft 579 kts 91°
2026-05-08 08:43 33.66139 -86.32955 37064 ft 578 kts 92°
2026-05-08 08:43 33.65949 -86.23300 37063 ft 578 kts 93°
2026-05-08 08:44 33.65708 -86.13696 37058 ft 578 kts 92°
2026-05-08 08:44 33.65496 -86.04044 37056 ft 578 kts 92°
2026-05-08 08:45 33.65305 -85.94442 37052 ft 572 kts 92°
2026-05-08 08:45 33.65120 -85.84941 37049 ft 569 kts 92°
2026-05-08 08:46 33.64878 -85.75409 37053 ft 573 kts 93°
2026-05-08 08:46 33.64620 -85.65885 37053 ft 575 kts 92°
2026-05-08 08:47 33.64407 -85.56258 37054 ft 576 kts 92°
2026-05-08 08:47 33.64192 -85.46626 37053 ft 577 kts 92°
2026-05-08 08:48 33.63929 -85.36989 37053 ft 577 kts 93°
2026-05-08 08:48 33.63657 -85.27356 37055 ft 577 kts 93°
2026-05-08 08:49 33.63391 -85.17782 37058 ft 577 kts 92°
2026-05-08 08:49 33.63122 -85.08152 37062 ft 577 kts 92°
2026-05-08 08:50 33.62858 -84.98504 37055 ft 577 kts 92°
2026-05-08 08:50 33.62573 -84.88945 37056 ft 576 kts 93°
2026-05-08 08:51 33.62242 -84.79339 37053 ft 576 kts 93°
2026-05-08 08:51 33.61963 -84.69724 37048 ft 576 kts 92°
2026-05-08 08:52 33.61659 -84.60118 37048 ft 576 kts 93°
2026-05-08 08:52 33.61325 -84.50494 37050 ft 577 kts 93°
2026-05-08 08:53 33.60990 -84.40880 37049 ft 577 kts 93°
2026-05-08 08:53 33.60662 -84.31317 37051 ft 577 kts 93°
2026-05-08 08:54 33.60339 -84.21695 37053 ft 577 kts 93°
2026-05-08 08:54 33.59977 -84.12086 37052 ft 576 kts 94°
2026-05-08 08:55 33.59595 -84.02493 37052 ft 576 kts 94°
2026-05-08 08:55 33.59214 -83.92897 37051 ft 576 kts 93°
2026-05-08 08:56 33.59791 -83.83407 37043 ft 574 kts 76°
2026-05-08 08:56 33.62225 -83.74353 37038 ft 567 kts 63°
2026-05-08 08:57 33.65197 -83.65575 37032 ft 569 kts 65°
2026-05-08 08:57 33.67843 -83.56622 37029 ft 566 kts 63°
2026-05-08 08:58 33.71244 -83.48180 37031 ft 557 kts 53°
2026-05-08 08:58 33.75361 -83.40434 37029 ft 552 kts 49°
2026-05-08 08:59 33.79571 -83.32686 37034 ft 555 kts 50°
2026-05-08 08:59 33.83541 -83.24671 37043 ft 559 kts 52°
2026-05-08 09:00 33.87526 -83.16663 37032 ft 554 kts 52°
2026-05-08 09:00 33.91690 -83.08955 37013 ft 545 kts 47°
2026-05-08 09:01 33.95982 -83.01388 37030 ft 549 kts 47°
2026-05-08 09:01 34.00205 -82.93764 37027 ft 552 kts 49°
2026-05-08 09:02 34.04381 -82.85964 37002 ft 554 kts 49°
2026-05-08 09:02 34.06495 -82.82004 36230 ft 567 kts 50°
2026-05-08 09:02 34.08635 -82.77994 35465 ft 570 kts 50°
2026-05-08 09:03 34.10784 -82.73972 34713 ft 569 kts 50°
2026-05-08 09:03 34.12933 -82.69964 33964 ft 568 kts 50°
2026-05-08 09:03 34.15079 -82.65968 33214 ft 566 kts 50°
2026-05-08 09:03 34.17211 -82.61986 32465 ft 563 kts 51°
2026-05-08 09:04 34.19327 -82.58013 31715 ft 561 kts 51°
2026-05-08 09:04 34.21433 -82.54056 30965 ft 558 kts 51°
2026-05-08 09:04 34.23533 -82.50118 30215 ft 556 kts 51°
2026-05-08 09:04 34.25631 -82.46196 29618 ft 551 kts 51°
2026-05-08 09:05 34.27683 -82.42355 29348 ft 536 kts 51°
2026-05-08 09:05 34.29648 -82.38655 29089 ft 520 kts 51°
2026-05-08 09:05 34.31567 -82.35026 28835 ft 503 kts 51°
2026-05-08 09:05 34.33424 -82.31527 28598 ft 486 kts 51°
2026-05-08 09:06 34.35221 -82.28142 28366 ft 471 kts 50°
2026-05-08 09:06 34.36977 -82.24854 28135 ft 457 kts 50°
2026-05-08 09:06 34.38689 -82.21670 27922 ft 445 kts 50°
2026-05-08 09:06 34.40367 -82.18550 27716 ft 438 kts 49°
2026-05-08 09:07 34.42016 -82.15477 27514 ft 433 kts 50°
2026-05-08 09:07 34.43635 -82.12450 27314 ft 432 kts 49°
2026-05-08 09:07 34.45273 -82.09385 27116 ft 436 kts 50°
2026-05-08 09:07 34.46936 -82.06253 26910 ft 449 kts 50°
2026-05-08 09:08 34.48660 -82.02995 26693 ft 469 kts 51°
2026-05-08 09:08 34.50443 -81.99606 26437 ft 482 kts 51°
2026-05-08 09:08 34.52242 -81.96140 26092 ft 486 kts 52°
2026-05-08 09:08 34.54030 -81.92660 25722 ft 484 kts 52°
2026-05-08 09:09 34.55803 -81.89225 25348 ft 478 kts 51°
2026-05-08 09:09 34.57568 -81.85826 24970 ft 470 kts 51°
2026-05-08 09:09 34.59295 -81.82502 24591 ft 459 kts 51°
2026-05-08 09:09 34.60984 -81.79279 24226 ft 447 kts 50°
2026-05-08 09:10 34.62644 -81.76136 23870 ft 436 kts 50°
2026-05-08 09:10 34.64261 -81.73073 23517 ft 426 kts 50°
2026-05-08 09:10 34.65823 -81.70112 23183 ft 417 kts 50°
2026-05-08 09:10 34.67379 -81.67165 22853 ft 411 kts 50°
2026-05-08 09:11 34.68916 -81.64244 22527 ft 409 kts 50°
2026-05-08 09:11 34.70440 -81.61314 22203 ft 411 kts 51°
2026-05-08 09:11 34.71974 -81.58355 21866 ft 416 kts 51°
2026-05-08 09:11 34.73527 -81.55363 21321 ft 424 kts 51°
2026-05-08 09:12 34.75090 -81.52272 20586 ft 433 kts 53°
2026-05-08 09:12 34.76606 -81.49077 19911 ft 436 kts 55°
2026-05-08 09:12 34.77952 -81.45812 19189 ft 437 kts 60°
2026-05-08 09:12 34.79089 -81.42375 18443 ft 437 kts 66°
2026-05-08 09:13 34.80020 -81.38855 17696 ft 436 kts 70°
2026-05-08 09:13 34.80691 -81.35909 17076 ft 434 kts 72°
2026-05-08 09:13 34.81444 -81.32366 16328 ft 431 kts 72°
2026-05-08 09:13 34.82198 -81.28851 15578 ft 427 kts 72°
2026-05-08 09:14 34.82982 -81.25374 14827 ft 423 kts 71°
2026-05-08 09:14 34.83710 -81.21914 14078 ft 420 kts 74°
2026-05-08 09:14 34.84328 -81.18531 13669 ft 390 kts 76°
2026-05-08 09:14 34.84848 -81.15457 13649 ft 353 kts 76°
2026-05-08 09:15 34.85301 -81.12653 13599 ft 325 kts 76°
2026-05-08 09:15 34.85733 -81.09923 12877 ft 332 kts 77°
2026-05-08 09:15 34.86182 -81.07133 12128 ft 337 kts 77°
2026-05-08 09:15 34.86641 -81.04325 11379 ft 338 kts 77°
2026-05-08 09:16 34.87110 -81.01529 10628 ft 333 kts 76°
2026-05-08 09:16 34.87646 -80.98813 9878 ft 327 kts 73°
2026-05-08 09:16 34.88244 -80.96169 9124 ft 321 kts 70°
2026-05-08 09:16 34.88928 -80.93601 7938 ft 326 kts 67°
2026-05-08 09:17 34.90033 -80.91221 6670 ft 321 kts 46°
2026-05-08 09:17 34.91767 -80.89592 5422 ft 312 kts 25°
2026-05-08 09:17 34.93817 -80.89068 4845 ft 285 kts 356°
2026-05-08 09:17 34.95583 -80.89652 4973 ft 245 kts 336°
2026-05-08 09:18 34.97003 -80.90616 5031 ft 226 kts 328°
2026-05-08 09:18 34.98353 -80.91497 4910 ft 224 kts 338°
2026-05-08 09:18 34.99912 -80.91881 4627 ft 233 kts 354°
2026-05-08 09:18 35.01531 -80.91883 4369 ft 233 kts
2026-05-08 09:19 35.03152 -80.91886 4067 ft 233 kts 358°
2026-05-08 09:19 35.04703 -80.92029 3759 ft 211 kts 354°
2026-05-08 09:19 35.06098 -80.92206 3425 ft 191 kts 354°
2026-05-08 09:19 35.07367 -80.92332 3142 ft 175 kts 356°
2026-05-08 09:20 35.08542 -80.92427 2888 ft 163 kts 357°
2026-05-08 09:20 35.09636 -80.92524 2685 ft 151 kts 356°
2026-05-08 09:20 35.10640 -80.92614 2571 ft 141 kts 357°
2026-05-08 09:20 35.11287 -80.92668 2483 ft 140 kts 357°
2026-05-08 09:21 35.12264 -80.92750 2320 ft 142 kts 357°